Regional Weather Roundup
Issued by NWS

Home | Current Version | Previous Version | Text Only | Print | Product List | Glossary On
Versions: 1 2 3 4 5 6 7 8 9 10 11 12 13 14 15 16 17 18 19 20 21 22 23 24 25 26 27 28 29 30 31 32 33 34 35 36 37 38 39 40 41 42 43 44 45 46 47 48 49 50
000
ASUS43 KLMK 301910
RWRKY
KENTUCKY REGIONAL WEATHER ROUNDUP
NATIONAL WEATHER SERVICE LOUISVILLE KY
300 PM EDT SAT MAY 30 2015

NOTE "FAIR" INDICATES FEW OR NO CLOUDS BELOW 12,000 FEET
WITH NO SIGNIFICANT WEATHER AND/OR OBSTRUCTIONS TO VISIBILITY.

KYZ001>023-026-027-061>063-070>075-302000-
WESTERN AND SOUTH CENTRAL KENTUCKY

CITY           SKY/WX    TMP DP  RH WIND       PRES   REMARKS
PADUCAH        TSTM      69  66  90 S23G38    29.94R VSB 1/2
HENDERSON      MOSUNNY   82  66  57 S17       29.93F
OWENSBORO      LGT RAIN  77  72  84 S10       29.97F
HOPKINSVILLE   MOSUNNY   82  65  58 S18G25    29.99F
BOWLING GREEN  MOSUNNY   82  64  54 S20G31    30.02F
GLASGOW        LGT RAIN  73  68  85 SW3       30.05F
$$

KYZ024-025-028>034-038-045-046-053-302000-
NORTH CENTRAL KENTUCKY

CITY           SKY/WX    TMP DP  RH WIND       PRES   REMARKS
LOUISVILLE/SDF MOSUNNY   83  67  58 S17G25    29.99F
LOUISVILLE/LOU MOSUNNY   79  68  69 S12G17    30.00F
FORT KNOX      PTSUNNY   81  68  63 S16G24    29.99F
$$

KYZ035>037-039>044-047>052-055>060-089>105-302000-
NORTHEAST KENTUCKY

CITY           SKY/WX    TMP DP  RH WIND       PRES   REMARKS
LEXINGTON      MOSUNNY   83  65  54 S17       30.05F
COVINGTON      NOT AVBL
FRANKFORT      MOSUNNY   85  64  49 S16       30.02F
$$

KYZ054-064>069-076>088-106>120-302000-
SOUTHEAST KENTUCKY

CITY           SKY/WX    TMP DP  RH WIND       PRES   REMARKS
JACKSON        MOSUNNY   84  65  52 CALM      30.11F
LONDON         MOSUNNY   82  58  43 SE8       30.10F
SOMERSET       SUNNY     81  61  50 S12G18    30.09F
MIDDLESBORO    MOSUNNY   83  59  43 S6        30.12F
MONTICELLO     CLEAR     85  65  51 S13       30.10F
$$



USA.gov is the U.S. government's official web portal to all federal, state and local government web resources and services.